www.pogodaiklimat.ru

Погода и климат >> Архив погоды >> Россия >> Якутия >> Оймякон


АРХИВ ПОГОДЫ в Оймяконе

Время (UTC), дата Ветер
(напр.,м/с)
 
Видим.   Явления Облачность Т
(С)
Тd
(С)
f
(%)
Тe
(С)
Тes
(С)
Комфортность P
(гПа)
Po
(гПа)
Тmin
(С)
Tmax
(С)
R
(мм)
R24
(мм)
S
(см)
00 14.06 ЮВ 4 50 км 8/6 1000 м
[Cb cap Ci fib]
+13.5 -0.9 37 +12 +15 прохладно 1014.7 929.6
03 14.06 Ю 3 50 км 6/6 1000 м
[Cb cap]
+15.5 -1.2 32 +15 +19 по сезону 1012.3 928.0
06 14.06 Ю 3 50 км осадки на расстоянии 10/6 1000 м
[Cb cap Cs]
+15.9 -2.2 29 +16 +18 по сезону 1010.2 926.2
09 14.06 Ю 5
{10}
50 км 10/5 1000 м
[Cb cap Cs]
+14.1 -2.2 32 +13 +13 по сезону 1010.7 926.1 +16.7
12 14.06 Ю 4 50 км осадки на расстоянии 6/4 1000 м
[Cb cap Ac lent Ci fib]
+9.2 +2.1 61 +7 +7 прохладно 1012.4 926.4
15 14.06 З 2 50 км осадки на расстоянии 10/3 1000 м
[Cb cap Ac lent Cs]
+6.0 +2.1 76 +4 +4 прохладно 1013.6 926.6
18 14.06 ЮЗ 2 50 км осадки на расстоянии 9/9 1500 м
[Cb cap]
+6.5 +2.9 78 +4 +4 по сезону 1013.0 926.2
21 14.06 З 2 50 км слабый ливневой дождь 10/10 1500 м
[Cb cap]
+7.2 +5.5 89 +5 +5 прохладно 1012.6 926.0 +5.3 0.9
00 15.06 В 2 10 км слабый ливневой дождь 10/10 1440 м
[Cb cap]
+6.9 +6.5 97 +4 +4 очень
холодно
1011.6 925.0
03 15.06 СВ 2 50 км {ливн. осадки} 5/5 600 м
[Cb cap]
+11.2 +6.5 73 +10 +17 холодно 1009.2 924.2
06 15.06 З 3 50 км гроза, ливневой дождь [макс. диам. градин 6 мм] 8/8 1000 м
[Cb cap]
+11.9 +8.5 80 +10 +12 очень
холодно
1008.7 923.8
09 15.06 З 5 50 км осадки на расстоянии {гроза, ливн. осадки} 8/8 1000 м
[Cb cap]
+13.3 +6.2 62 +11 +12 прохладно 1007.9 923.5 +15.2 3
12 15.06 З 2 50 км {гроза, ливн. осадки} 9/6 1000 м
[Cb cap Ci fib]
+9.1 +5.1 76 +7 +7 холодно 1008.8 923.1
15 15.06 З 1 50 км 10/6 1000 м
[Cb cap Ci fib]
+3.8 +3.1 95 +2 +2 холодно 1010.5 923.0
18 15.06 ЮЗ 1 50 км слабый ливневой дождь 10/8 1000 м
[Cb cap Ac As]
+5.9 +4.7 92 +5 +5 по сезону 1008.7 922.1
21 15.06 Ю 2 50 км слабый ливневой дождь 10/8 1000 м
[Cb cap As op]
+6.7 +6.5 99 +4 +4 холодно 1007.8 921.5 +2.7 2
00 16.06 ЮЗ 1 50 км слабый ливневой дождь 10/10 600 м
[Cb cap]
+9.2 +8.0 92 +8 +8 холодно 1006.2 920.8
03 16.06 В 1 50 км {ливн. осадки} 8/5 600 м
[Cb cap Ac trans Ci fib]
+11.3 +8.2 81 +11 +16 холодно 1004.5 919.8
06 16.06 В 1 50 км слабый ливневой дождь 8/6 1000 м
[Cb cap Ac trans Ci fib]
+11.6 +8.5 81 +11 +14 очень
холодно
1003.8 919.4
09 16.06 Ю 2 50 км {ливн. осадки} 9/6 1000 м
[Cb cap Ci fib]
+14.2 +7.3 63 +14 +15 по сезону 1002.5 918.8 +14.2 5
12 16.06 СВ 1 50 км осадки на расстоянии {ливн. осадки} 9/4 1000 м
[Cb cap Ci fib]
+10.5 +8.2 86 +10 +10 по сезону 1004.3 919.5
15 16.06 штиль 0 50 км местами туман поземный 8/8 1000 м
[Cb cap]
+4.6 +4.1 97 +3 +3 холодно 1006.8 919.9
18 16.06 В 1 50 км местами туман поземный 9/9 1000 м
[Cb cap]
+6.3 +5.9 97 +5 +5 по сезону 1006.3 920.1
21 16.06 В 1 50 км слабый ливневой дождь 9/9 1000 м
[Cb cap]
+9.3 +7.1 86 +9 +9 по сезону 1006.3 920.9 +3.7 0.1
00 17.06 С 2 50 км {ливн. осадки} 9/3 1000 м
[Cu med, cong Ac trans Cs]
+12.2 +7.4 72 +11 +16 прохладно 1005.4 921.0
03 17.06 Ю 3 50 км 8/6 1000 м
[Cb calv Ci fib]
+16.6 +4.3 44 +16 +20 по сезону 1003.7 920.5
06 17.06 З 8 20 км гроза, ливневой дождь 9/9 600 м
[Cb cap Ci ing]
+14.6 +5.3 54 +13 +13 холодно 1003.9 920.1
09 17.06 В 2 50 км {гроза, ливн. осадки} 9/3 1000 м
[Cb cap Ac cast Ci fib]
+12.4 +9.0 80 +12 +12 прохладно 1005.3 921.0 +18.1 3
12 17.06 В 1 50 км {гроза, ливн. осадки} 8/6 1000 м
[Cb cap Ci fib]
+10.6 +9.0 90 +10 +10 по сезону 1006.7 921.7
15 17.06 штиль 0 50 м туман 8/4 1000 м
[Cb cap Ci fib]
+4.6 +3.9 95 +3 +3 холодно 1008.9 921.8
18 17.06 С 3 50 км местами туман поземный 9/4 1000 м
[Cb cap Ci fib]
+6.2 +6.0 99 +3 +3 по сезону 1009.3 922.6
21 17.06 ЮВ 1 50 км 4/3 1000 м
[Sc Ci fib]
+11.0 +5.1 67 +11 +14 по сезону 1008.2 923.1 +4.1
00 18.06 В 2 50 км 8/6 1000 м
[Cu med, cong Ci fib]
+15.4 +5.8 53 +15 +19 по сезону 1006.4 922.7
03 18.06 СВ 2 50 км 9/6 1000 м
[Cu med, cong Ci fib]
+18.3 +6.7 47 +19 +23 тепло 1004.8 922.0
06 18.06 В 2 50 км 8/6 1000 м
[Cb cap Ci fib]
+20.5 +4.8 36 +22 +25 комфорт 1003.2 921.1
09 18.06 С 1 50 км 6/5 1000 м
[Cb cap Ci fib]
+19.5 +5.8 41 +21 +22 комфорт 1003.7 921.3 +20.8
12 18.06 З 1 50 км 5/3 1000 м
[Sc diur, vesp Ci fib]
+15.0 +5.3 52 +16 +16 тепло 1006.7 922.8
15 18.06 ЮЗ 1 50 км местами туман поземный 4/1 1000 м
[Sc diur, vesp Ci fib]
+6.8 +5.5 91 +6 +6 по сезону 1010.2 923.7
18 18.06 Ю 1 50 км местами туман поземный 4/1 1000 м
[Sc Ci fib]
+3.6 +3.1 97 +2 +2 по сезону 1012.4 924.7
21 18.06 штиль 0 50 км 5/0
[Ci fib]
+11.9 +6.2 68 +12 +16 по сезону 1010.3 925.3 +3.0
00 19.06 СВ 1 50 км 6/1 1000 м
[Cb cap Ci fib]
+17.6 +5.8 46 +19 +29 тепло 1008.2 924.9
03 19.06 СВ 3 50 км осадки на расстоянии 8/8 1000 м
[Cb cap Ci ing]
+20.1 +5.0 37 +21 +23 комфорт 1006.3 923.8
06 19.06 СВ 2 50 км в посл. час ливневой дождь 9/8 1000 м
[Cb cap Ci ing]
+19.6 +5.9 41 +21 +22 комфорт 1005.8 923.2
09 19.06 СВ 2 50 км осадки на расстоянии 9/6 1000 м
[Cb cap Ci ing]
+17.4 +6.5 49 +18 +19 тепло 1007.1 923.9 +21.6 0.0
12 19.06 СВ 2 50 км 8/5 1000 м
[Cb cap Ci fib]
+12.9 +7.6 70 +12 +12 по сезону 1008.3 923.7
15 19.06 З 1 50 км 5/5 1000 м
[Sc]
+6.4 +5.7 95 +5 +5 прохладно 1010.3 923.7
18 19.06 ЮВ 1 50 км 8/5 1000 м
[Sc Ci fib]
+4.2 +3.5 95 +3 +3 по сезону 1011.5 924.1
21 19.06 СВ 1 50 км 5/4 1000 м
[Sc Ci fib]
+10.0 +6.5 79 +10 +12 по сезону 1009.8 924.3 +4.0
00 20.06 В 1 50 км 4/3 1000 м
[Cu Sc Ci fib]
+18.5 +6.7 46 +20 +28 тепло 1006.6 923.7
03 20.06 ЮВ 4 50 км в посл. час гроза 8/6 1000 м
[Cb cap Ci fib]
+20.3 +6.7 41 +21 +24 комфорт 1004.6 922.4
06 20.06 СВ 4
{10}
50 км {гроза} 8/8 1000 м
[Cb cap Ci fib]
+19.1 +6.8 45 +20 +21 по сезону 1004.5 922.0
09 20.06 В 3-11
{11}
50 км 6/6 1000 м
[Cb cap]
+21.0 +5.8 37 +22 +23 комфорт 1003.1 921.2 +21.4
12 20.06 СВ 2
{11}
50 км 8/8 1000 м
[Cb cap]
+16.0 +7.1 55 +16 +16 тепло 1004.6 921.2
15 20.06 СВ 3 50 км 8/8 1000 м
[Cb cap]
+11.3 +6.7 73 +10 +10 по сезону 1006.5 921.6
18 20.06 Ю 3 50 км 8/8 1000 м
[Cb cap]
+10.4 +3.0 60 +9 +9 тепло 1007.8 922.5
21 20.06 В 1 50 км 6/6 1000 м
[Sc]
+12.2 +4.8 61 +12 +14 по сезону 1007.8 923.2 +8.9

 

Местоположение метеостанции Оймякон (Якутия, Россия): широта 63.25 долгота 143.10 высота над уровнем моря 740 м.

В архиве по умолчанию представлена погода в Оймяконе за последнюю неделю. Архивные данные за месяц целиком и за предыдущие месяцы, начиная с января 2011 года, Вы можете получить, выбрав интересующий диапазон дат из раскрывающегося списка и нажав кнопку "Ввод!".


*Определитесь, кто Вы:
робот инопланетянин человек

Внимание! Время в таблицах - всемирное. Для получения местного времени необходимо прибавить поправку, которая в Оймяконе равна 10 ч.

Смотрите также архив погоды в соседних городах и на ближайших метеорологических станциях:

Погода в Агаякане (Якутия, Россия) (71 км)
Погода в Юртах (Якутия, Россия) (110 км)
Погода в Делянкире (Якутия, Россия) (140 км)
Погода в Усть-Нере (Якутия, Россия) (142 км)
Погода в Восточной (Якутия, Россия) (175 км)
Погода в Сусумане (Магаданская область, Россия) (258 км)
Погода в Колымской (Магаданская область, Россия) (278 км)
Погода в Уеге (Хабаровский край, Россия) (282 км)
Погода в Теплом Ключе (Якутия, Россия) (322 км)
Погода в Ягодной (Магаданская область, Россия) (340 км)

Пояснения к столбцам:

Ветер - указаны скорость ветра в м/с - средняя за 10 мин, порывы в срок и между сроками (в фигурных скобках) и направление, откуда дует ветер: С - северный, СВ - северо-восточный, В - восточный, ЮВ - юго-восточный, Ю - южный, ЮЗ - юго-западный, З - западный, СЗ - северо-западный.
Видимость - горизонтальная дальность видимости в метрах или километрах. При видимости от 1 до 10 км при отсутствии осадков обычно наблюдается дымка, при ухудшении видимости до 1 км и менее - туман. В сухую погоду видимость может ухудшаться дымом, пылью или мглою.
Явления - указаны атмосферные явления, наблюдавшиеся в срок или в последний час перед сроком; фигурными скобками обозначены явления, наблюдавшиеся между сроками (за 1-3 часа до срока); квадратными скобками обозначены град или гололедные отложения с указанием их диаметра в мм.
Облачность - указаны через наклонную черту общая и нижняя облачность в баллах и высота нижней границы облаков в метрах; квадратными скобками обозначены формы облаков: Ci - перистые, Cs - перисто-слоистые, Cc - перисто-кучевые, Ac - высококучевые, As - высокослоистые, Sc - слоисто-кучевые, Ns - слоисто-дождевые, Cu - кучевые, Cb - кучево-дождевые. Подробнее классификацию облаков см. в Атласе облаков (PDF).
T - Температура воздуха - температура, измеренная на высоте 2 м над землей.
Td - Температура точки росы - температура, при понижении до которой содержащийся в воздухе водяной пар достигнет насыщения.
f - Относительная влажность воздуха - влажноcть воздуха, измеренная на высоте 2 м над землей.
Te - Эффективная температура - температура, которую ощущает одетый по сезону человек в тени. Характеристика душности погоды. При расчете учитывается влияние влажности воздуха и скорости ветра на теплоощущения человека.
Tes - Эффективная температура на солнце - температура, которую ощущает человек, с поправкой на солнечный нагрев. Характеристика знойности погоды. Зависит от высоты солнца над горизонтом, облачности и скорости ветра. Ночью, в пасмурную погоду, а также при ветре 12 м/с и более поправка равна нулю.
P - Атмосферное давление - приведенное к уровню моря атмосферное давление.
Po - Атмосферное давление - измеренное на уровне метеостанции атмосферное давление.
Tmin - Минимальная температура - минимум температуры воздуха на высоте 2 м над землей.
Tmax - Максимальная температура - максимум температуры воздуха на высоте 2 м над землей.
R - Количество осадков - Количество выпавших осадков за период времени, мм. При наведении курсора мыши на число - период времени, за который выпало указанное количество осадков.
R24 - Количество осадков - Количество выпавших осадков за 24 часа, мм.
S - Снежный покров - Высота снежного покрова, см. При наведении курсора мыши на число - состояние снежного покрова и степень покрытия местности в баллах.